Location: *
(48.4333°N, 5.0333°W)
Time: 22:57:34
(UTC+00:00)

Cosmos 2082 Rocket - Pass Details

Date: 09 April 2020
Orbit: 831 x 855 km, 71.0° (Epoch: 02 June)

Event Time Altitude Azimuth Distance (km) Brightness Sun altitude
Exits shadow 22:15:24 41° 61° (ENE) 1,198 2.9 -27.1°
Drops below altitude 10° 22:19:19 10° 35° (NE) 2,470 4.8 -27.5°
Sets 22:21:49 0° 31° (NNE) 3,413 5.7 -27.7°
